| time (UTC) | temp F | wind direction | speed knots | gust knots | rain 1hr in | rain 24hr in | rain mn in | humidity % | barometer mb |
| 20260503213016 | 72 | 293 | 2.6 | 5.2 | 0.00 | 0.00 | 0.00 | 35 | 1018.1 |
| 20260503212016 | 72 | 270 | 4.3 | 7.0 | 0.00 | 0.00 | 0.00 | 36 | 1018.1 |
| 20260503211036 | 72 | 293 | 3.5 | 7.8 | 0.00 | 0.00 | 0.00 | 36 | 1018.1 |
| 20260503210016 | 72 | 225 | 3.5 | 7.8 | 0.00 | 0.00 | 0.00 | 38 | 1017.9 |
| 20260503205036 | 72 | 293 | 3.5 | 7.0 | 0.00 | 0.00 | 0.00 | 37 | 1018.0 |
| 20260503204056 | 72 | 270 | 6.1 | 13.0 | 0.00 | 0.00 | 0.00 | 38 | 1018.0 |
| 20260503203016 | 72 | 225 | 3.5 | 8.7 | 0.00 | 0.00 | 0.00 | 40 | 1018.2 |
| 20260503202016 | 72 | 270 | 4.3 | 9.6 | 0.00 | 0.00 | 0.00 | 41 | 1018.3 |
| 20260503201016 | 70 | 270 | 2.6 | 7.8 | 0.00 | 0.00 | 0.00 | 40 | 1018.6 |
| 20260503200016 | 71 | 315 | 2.6 | 6.1 | 0.00 | 0.00 | 0.00 | 41 | 1018.7 |
| 20260503195056 | 71 | 0 | 4.3 | 9.6 | 0.00 | 0.00 | 0.00 | 42 | 1018.9 |
| 20260503194036 | 70 | 0 | 6.1 | 10.4 | 0.00 | 0.00 | 0.00 | 43 | 1018.9 |
| 20260503193016 | 71 | 270 | 3.5 | 9.6 | 0.00 | 0.00 | 0.00 | 43 | 1019.2 |
| 20260503192016 | 71 | 293 | 7.0 | 11.3 | 0.00 | 0.00 | 0.00 | 45 | 1019.5 |
| 20260503191016 | 70 | 270 | 4.3 | 10.4 | 0.00 | 0.00 | 0.00 | 42 | 1019.7 |
| 20260503190016 | 71 | 0 | 3.5 | 8.7 | 0.00 | 0.00 | 0.00 | 40 | 1019.7 |
| 20260503185016 | 71 | 0 | 7.0 | 13.9 | 0.00 | 0.00 | 0.00 | 45 | 1019.8 |
| 20260503184016 | 69 | 0 | 1.7 | 7.8 | 0.00 | 0.00 | 0.00 | 44 | 1019.9 |
| 20260503183016 | 70 | 0 | 4.3 | 10.4 | 0.00 | 0.00 | 0.00 | 47 | 1020.1 |
| 20260503182016 | 70 | 0 | 7.8 | 11.3 | 0.00 | 0.00 | 0.00 | 43 | 1020.4 |
| 20260503181036 | 69 | 248 | 2.6 | 9.6 | 0.00 | 0.00 | 0.00 | 47 | 1020.3 |
| 20260503180016 | 69 | 270 | 4.3 | 11.3 | 0.00 | 0.00 | 0.00 | 48 | 1020.5 |
| 20260503175016 | 70 | 248 | 7.8 | 12.2 | 0.00 | 0.00 | 0.00 | 46 | 1020.6 |
| 20260503174016 | 69 | 248 | 6.1 | 10.4 | 0.00 | 0.00 | 0.00 | 48 | 1020.5 |
| 20260503173016 | 68 | 225 | 2.6 | 7.8 | 0.00 | 0.00 | 0.00 | 46 | 1020.7 |
| 20260503172016 | 68 | 0 | 4.3 | 8.7 | 0.00 | 0.00 | 0.00 | 50 | 1020.7 |
| 20260503171016 | 68 | 248 | 3.5 | 8.7 | 0.00 | 0.00 | 0.00 | 48 | 1020.9 |
| 20260503150116 | 63 | 0 | 1.7 | 3.5 | 0.00 | 0.08 | 0.00 | 74 | 1021.6 |
| 20260503131035 | 51 | 0 | 0.9 | 1.7 | 0.00 | 0.18 | 0.00 | 96 | 1021.2 |
| 20260503081057 | 47 | 0.0 | 0.0 | 0.00 | 0.56 | 0.00 | 93 | 1018.5 | |
| 20260503072037 | 49 | 0.0 | 0.0 | 0.00 | 0.64 | 0.00 | 93 | 1018.1 | |
| 20260503071017 | 49 | 0.0 | 0.0 | 0.00 | 0.66 | 0.00 | 93 | 1017.9 | |
| 20260503055017 | 51 | 0.0 | 0.0 | 0.00 | 0.74 | 0.00 | 93 | 1017.5 | |
| 20260503054017 | 52 | 0.0 | 0.0 | 0.00 | 0.75 | 0.00 | 93 | 1017.4 | |
| 20260503053017 | 52 | 0.0 | 0.0 | 0.00 | 0.76 | 0.00 | 93 | 1017.4 | |
| 20260503052017 | 52 | 0.0 | 0.0 | 0.00 | 0.76 | 0.00 | 93 | 1017.5 | |
| 20260503051037 | 52 | 0.0 | 1.7 | 0.00 | 0.76 | 0.00 | 93 | 1017.4 | |
| 20260503050017 | 52 | 113 | 0.9 | 2.6 | 0.00 | 0.76 | 0.00 | 93 | 1017.2 |
| 20260503045037 | 52 | 0.0 | 0.9 | 0.00 | 0.76 | 0.00 | 93 | 1017.2 | |
| 20260503044017 | 52 | 68 | 0.9 | 2.6 | 0.00 | 0.76 | 0.00 | 93 | 1017.2 |
| 20260503043017 | 52 | 0.0 | 0.0 | 0.00 | 0.76 | 0.00 | 93 | 1017.1 | |
| 20260503042017 | 52 | 0.0 | 0.0 | 0.00 | 0.76 | 0.00 | 93 | 1017.0 | |
| 20260503041017 | 52 | 0.0 | 0.0 | 0.00 | 0.76 | 0.00 | 93 | 1017.1 | |
| 20260503040016 | 52 | 0.0 | 0.9 | 0.00 | 0.76 | 0.76 | 93 | 1017.1 | |
| 20260503035017 | 52 | 0.0 | 0.9 | 0.00 | 0.76 | 0.76 | 93 | 1017.4 | |
| 20260503034017 | 53 | 0.0 | 1.7 | 0.00 | 0.76 | 0.76 | 92 | 1017.4 | |
| 20260503033017 | 53 | 0.0 | 1.7 | 0.00 | 0.76 | 0.76 | 92 | 1017.0 | |
| 20260503032017 | 53 | 0.0 | 1.7 | 0.00 | 0.76 | 0.76 | 92 | 1017.0 | |
| 20260503031017 | 53 | 68 | 0.9 | 3.5 | 0.00 | 0.76 | 0.76 | 92 | 1016.9 |
| 20260503030017 | 52 | 90 | 0.9 | 1.7 | 0.00 | 0.76 | 0.76 | 92 | 1016.6 |
| 20260503025017 | 52 | 0.0 | 0.0 | 0.00 | 0.76 | 0.76 | 92 | 1016.5 | |
| 20260503024017 | 52 | 0.0 | 0.0 | 0.00 | 0.76 | 0.76 | 91 | 1016.3 | |
| 20260503023017 | 52 | 0.0 | 0.0 | 0.00 | 0.76 | 0.76 | 91 | 1016.2 | |
| 20260503022017 | 52 | 0.0 | 0.0 | 0.00 | 0.76 | 0.76 | 91 | 1016.0 | |
| 20260503021037 | 52 | 0.0 | 0.0 | 0.00 | 0.76 | 0.76 | 91 | 1016.0 | |
| 20260503020037 | 52 | 0.0 | 0.0 | 0.00 | 0.76 | 0.76 | 90 | 1016.0 | |
| 20260503015037 | 52 | 0.0 | 0.0 | 0.00 | 0.76 | 0.76 | 89 | 1015.6 | |
| 20260503014037 | 52 | 0.0 | 0.0 | 0.00 | 0.76 | 0.76 | 88 | 1015.5 | |
| 20260503013017 | 53 | 0.0 | 0.0 | 0.00 | 0.76 | 0.76 | 88 | 1015.3 | |
| 20260503012016 | 53 | 0.0 | 0.0 | 0.00 | 0.76 | 0.76 | 88 | 1015.2 | |
| 20260503011017 | 53 | 0.0 | 0.0 | 0.00 | 0.76 | 0.76 | 88 | 1015.1 | |
| 20260503010017 | 54 | 0.0 | 0.0 | 0.00 | 0.76 | 0.76 | 87 | 1015.1 | |
| 20260503005016 | 54 | 0.0 | 0.0 | 0.00 | 0.76 | 0.76 | 87 | 1014.8 | |
| 20260503004017 | 54 | 0.0 | 0.9 | 0.00 | 0.76 | 0.76 | 86 | 1014.8 | |
| 20260503003017 | 55 | 0.0 | 0.0 | 0.00 | 0.76 | 0.76 | 84 | 1014.8 | |
| 20260503002017 | 56 | 0.0 | 0.0 | 0.00 | 0.76 | 0.76 | 84 | 1014.7 | |
| 20260503001016 | 57 | 0.0 | 0.0 | 0.00 | 0.76 | 0.76 | 83 | 1014.5 | |
| 20260503000017 | 57 | 0.0 | 0.9 | 0.00 | 0.76 | 0.76 | 83 | 1014.3 | |
| 20260502235016 | 57 | 0.0 | 0.9 | 0.00 | 0.76 | 0.76 | 84 | 1014.1 | |
| 20260502234037 | 57 | 0 | 0.9 | 2.6 | 0.00 | 0.76 | 0.76 | 84 | 1013.6 |
| 20260502233016 | 57 | 0 | 0.9 | 2.6 | 0.00 | 0.76 | 0.76 | 84 | 1013.5 |
| 20260502232017 | 57 | 0 | 0.9 | 2.6 | 0.00 | 0.76 | 0.76 | 85 | 1013.6 |
| 20260502231017 | 57 | 0 | 0.9 | 3.5 | 0.00 | 0.76 | 0.76 | 84 | 1013.8 |
| 20260502230036 | 57 | 0 | 0.9 | 4.3 | 0.00 | 0.76 | 0.76 | 85 | 1013.7 |
| 20260502225016 | 56 | 0.0 | 1.7 | 0.00 | 0.76 | 0.76 | 86 | 1013.6 | |
| 20260502224016 | 57 | 90 | 0.9 | 3.5 | 0.00 | 0.76 | 0.76 | 85 | 1013.6 |
| 20260502223016 | 57 | 90 | 0.9 | 3.5 | 0.00 | 0.76 | 0.76 | 85 | 1013.6 |
| 20260502222117 | 57 | 0.0 | 2.6 | 0.00 | 0.76 | 0.76 | 85 | 1013.5 | |
| 20260502221016 | 57 | 90 | 0.9 | 2.6 | 0.00 | 0.76 | 0.76 | 86 | 1013.4 |
| 20260502220016 | 56 | 90 | 0.9 | 3.5 | 0.00 | 0.76 | 0.76 | 85 | 1013.4 |
| 20260502215017 | 56 | 68 | 0.9 | 4.3 | 0.00 | 0.76 | 0.76 | 86 | 1013.3 |
| 20260502214016 | 56 | 0.0 | 2.6 | 0.00 | 0.76 | 0.76 | 86 | 1013.3 |